Regional Weather Roundup
Issued by NWS

Home | Current Version | Previous Version | Graphics & Text | Print | Product List | Glossary On
Versions: 1 2 3 4 5 6 7 8 9 10 11 12 13 14 15 16 17 18 19 20 21 22 23 24 25 26 27 28
000
ASUS45 KGTF 250510
RWRMT
MONTANA HOURLY WEATHER ROUNDUP
NATIONAL WEATHER SERVICE GREAT FALLS MT
1100 PM MDT FRI APR 24 2015

NOTE: "FAIR" INDICATES FEW OR NO CLOUDS BELOW 12000 FEET WITH NO
SIGNIFICANT WEATHER AND/OR OBSTRUCTIONS TO VISIBILITY.

MTZ001>007-043-250600-
WEST OF THE DIVIDE

CITY           SKY/WX    TMP DP  RH WIND       PRES   REMARKS
KALISPELL      MOCLDY    36  27  69 SW5       29.78R
MISSOULA       MOCLDY    40  24  53 N6        29.80R
BUTTE          CLOUDY    35  32  88 CALM      29.76S
DEER LODGE       N/A     39  25  56 NW10      29.80S
EUREKA           N/A     41  23  48 E6        29.80R
HAMILTON         N/A     41  23  48 SE6       29.78F
LIBBY            N/A     37  27  65 CALM      29.81R
$$

MTZ008-052>055-250600-
SOUTHWEST MONTANA

CITY           SKY/WX    TMP DP  RH WIND       PRES   REMARKS
BOZEMAN        LGT RAIN  39  36  89 W12       29.76R WCI  32
DILLON         CLOUDY    36  33  89 NE7       29.75S WCI  30
$$

MTZ009-010-012-014-046-048-049-054-250600-
EAST SLOPES AND CENTRAL MONTANA

CITY           SKY/WX    TMP DP  RH WIND       PRES   REMARKS
CUT BANK       CLOUDY    42  19  39 W13       29.72R
GREAT FALLS    LGT RAIN  42  37  82 S6        29.73S
MALMSTROM AFB  LGT RAIN  42  40  95 SE6       29.75R
HELENA         CLOUDY    47  31  53 W6        29.73R
$$

MTZ011-013-016-021-045-047-050-051-250600-
NORTH CENTRAL MONTANA

CITY           SKY/WX    TMP DP  RH WIND       PRES   REMARKS
HAVRE          CLOUDY    50  40  68 S10       29.67S
LEWISTOWN      RAIN      43  41  93 NW14      29.70R
CHINOOK          N/A     54  37  54 SW6       29.66S
FORT BENTON      N/A     45  39  81 S6        29.73R
$$

MTZ017>020-022>042-056>058-061-062-250600-
EASTERN PLAINS

CITY           SKY/WX    TMP DP  RH WIND       PRES   REMARKS
BAKER          MOCLDY    50  35  56 SE9       29.63R
BILLINGS       LGT RAIN  51  37  58 N15       29.58S
GLASGOW        MOCLDY    52  33  48 N9        29.60S
JORDAN           N/A     51  40  65 N7        29.60S
LIVINGSTON     LGT RAIN  39  32  76 W9        29.72R
MILES CITY     CLOUDY    49  45  86 NE8       29.58R
SIDNEY         MOCLDY    55  34  44 CALM      29.63S
WOLF POINT     CLOUDY    54  43  66 E3        29.59F
BIG TIMBER       N/A     39  37  93 SW18      29.67S WCI  30
FORSYTH          N/A     50  48  93 CALM      29.57R
PLENTYWOOD       N/A     55  36  47 E16       29.64R
POPLAR           N/A     52  41  66 N6        29.61F
$$

REGIONAL REPORTS...DAKOTAS

CITY           SKY/WX    TMP DP  RH WIND       PRES   REMARKS
WILLISTON      CLOUDY    57  35  43 SE9       29.65S
MINOT          CLEAR     45  38  76 E13       29.72R
DICKINSON      CLEAR     43  33  68 E8        29.64S
BEACH          FAIR      48  32  53 E13       29.64S
CROSBY         CLOUDY    52  37  58 E8        29.69S
WATFORD CITY   FAIR      48  34  57 E7        29.64S
BISMARCK       CLEAR     47  42  83 E12       29.71S
GRAND FORKS    CLOUDY    46  35  65 E12       29.82S
FARGO          CLOUDY    46  39  76 E9        29.78S
BUFFALO SD       N/A     49  33  54 E14       29.57F
RAPID CITY     PTCLDY    46  42  86 NW8       29.62S
$$

REGIONAL REPORTS...WYOMING/IDAHO/WASHINGTON

CITY           SKY/WX    TMP DP  RH WIND       PRES   REMARKS
GILLETTE       CLOUDY    49  39  68 S8        29.64S
SHERIDAN       PTCLDY    49  39  68 S3        29.58F
BUFFALO WY     MOCLDY    50  40  68 S10       29.66S
CODY           MOCLDY    52  34  50 W8        29.61F
YELLOWSTONE LA   N/A     33  32  96 CALM      29.75S
IDAHO FALLS    CLOUDY    46  36  68 SW18      29.72R
SALMON         CLOUDY    43  28  56 N12       29.76R
BOISE          MOCLDY    50  32  50 N14       29.78R
SPOKANE        MOCLDY    44  30  57 SE3       29.79S
$$

REGIONAL REPORTS...ALBERTA

CITY           SKY/WX    TMP DP  RH WIND       PRES   REMARKS
EDMONTON       CLOUDY    37  27  65 E7        29.82S
CALGARY        MOCLDY    36  32  87 N12       29.73R WCI  27
LETHBRIDGE     PTCLDY    41  19  42 W14       29.69R
MEDICINE HAT   MOCLDY    48  25  40 W10       29.65S
$$

REGIONAL REPORTS...SASKATCHEWAN

CITY           SKY/WX    TMP DP  RH WIND       PRES   REMARKS
SWIFT CURRENT  MOCLDY    41  34  75 E10       29.68R
REGINA         MOCLDY    52  34  50 E16       29.69S
SASKATOON      MOCLDY    32  27  80 NE22      29.84R WCI  19
$$



USA.gov is the U.S. government's official web portal to all federal, state and local government web resources and services.